Time,TemperatureF,DewpointF,PressureIn,WindDirection,WindDirectionDegrees,WindSpeedMPH,WindSpeedGustMPH,Humidity,HourlyPrecipIn,Conditions,Clouds,dailyrainin,SoftwareType,DateUTC
2013-01-10 00:00:00,36.0,-99.9,30.35,West,280,24.0,-999.0,-999,-99.99,,,-99.99,,2013-01-10 05:00:00,
2013-01-10 00:23:00,36.0,-99.9,30.35,West,280,24.0,-999.0,-999,-99.99,,,-99.99,,2013-01-10 05:23:00,
2013-01-10 00:33:00,36.0,-99.9,30.35,West,280,24.0,-999.0,-999,-99.99,,,-99.99,,2013-01-10 05:33:00,
2013-01-10 00:43:00,36.0,-99.9,30.35,West,280,24.0,-999.0,-999,-99.99,,,-99.99,,2013-01-10 05:43:00,
2013-01-10 00:53:00,36.0,-99.9,30.35,West,280,24.0,-999.0,-999,-99.99,,,-99.99,,2013-01-10 05:53:00,
2013-01-10 01:00:00,34.0,-99.9,30.39,West,270,16.0,-999.0,-999,-99.99,,,-99.99,,2013-01-10 06:00:00,
2013-01-10 01:22:00,34.0,-99.9,30.39,West,270,16.0,-999.0,-999,-99.99,,,-99.99,,2013-01-10 06:22:00,
2013-01-10 01:32:00,34.0,-99.9,30.39,West,270,16.0,-999.0,-999,-99.99,,,-99.99,,2013-01-10 06:32:00,
2013-01-10 01:42:00,34.0,-99.9,30.39,West,270,16.0,-999.0,-999,-99.99,,,-99.99,,2013-01-10 06:42:00,
2013-01-10 01:53:00,34.0,-99.9,30.39,West,270,16.0,-999.0,-999,-99.99,,,-99.99,,2013-01-10 06:53:00,
2013-01-10 02:00:00,34.0,-99.9,30.37,NW,310,16.0,-999.0,-999,-99.99,,,-99.99,,2013-01-10 07:00:00,
2013-01-10 02:32:00,34.0,-99.9,30.37,NW,310,16.0,-999.0,-999,-99.99,,,-99.99,,2013-01-10 07:32:00,
2013-01-10 02:42:00,34.0,-99.9,30.37,NW,310,16.0,-999.0,-999,-99.99,,,-99.99,,2013-01-10 07:42:00,
2013-01-10 02:52:00,34.0,-99.9,30.37,NW,310,16.0,-999.0,-999,-99.99,,,-99.99,,2013-01-10 07:52:00,
2013-01-10 03:00:00,33.0,-99.9,30.37,North,350,9.0,-999.0,-999,-99.99,,,-99.99,,2013-01-10 08:00:00,
2013-01-10 03:53:00,33.0,-99.9,30.37,North,350,9.0,-999.0,-999,-99.99,,,-99.99,,2013-01-10 08:53:00,
2013-01-10 04:00:00,33.0,-99.9,30.41,SW,220,2.0,-999.0,-999,-99.99,,,-99.99,,2013-01-10 09:00:00,
2013-01-10 04:22:00,33.0,-99.9,30.41,SW,220,2.0,-999.0,-999,-99.99,,,-99.99,,2013-01-10 09:22:00,
2013-01-10 04:32:00,33.0,-99.9,30.41,SW,220,2.0,-999.0,-999,-99.99,,,-99.99,,2013-01-10 09:32:00,
2013-01-10 04:43:00,33.0,-99.9,30.41,SW,220,2.0,-999.0,-999,-99.99,,,-99.99,,2013-01-10 09:43:00,
2013-01-10 04:53:00,33.0,-99.9,30.41,SW,220,2.0,-999.0,-999,-99.99,,,-99.99,,2013-01-10 09:53:00,
2013-01-10 05:00:00,35.0,-99.9,30.46,SSW,200,9.0,-999.0,-999,-99.99,,,-99.99,,2013-01-10 10:00:00,
2013-01-10 05:22:00,35.0,-99.9,30.46,SSW,200,9.0,-999.0,-999,-99.99,,,-99.99,,2013-01-10 10:22:00,
2013-01-10 05:33:00,35.0,-99.9,30.46,SSW,200,9.0,-999.0,-999,-99.99,,,-99.99,,2013-01-10 10:33:00,
2013-01-10 05:43:00,35.0,-99.9,30.46,SSW,200,9.0,-999.0,-999,-99.99,,,-99.99,,2013-01-10 10:43:00,
2013-01-10 05:53:00,35.0,-99.9,30.46,SSW,200,9.0,-999.0,-999,-99.99,,,-99.99,,2013-01-10 10:53:00,
2013-01-10 10:00:00,38.0,-99.9,30.46,SSE,160,14.0,-999.0,-999,-99.99,,,-99.99,,2013-01-10 15:00:00,
2013-01-10 10:23:00,38.0,-99.9,30.46,SSE,160,14.0,-999.0,-999,-99.99,,,-99.99,,2013-01-10 15:23:00,
2013-01-10 10:33:00,38.0,-99.9,30.46,SSE,160,14.0,-999.0,-999,-99.99,,,-99.99,,2013-01-10 15:33:00,
2013-01-10 10:43:00,38.0,-99.9,30.46,SSE,160,14.0,-999.0,-999,-99.99,,,-99.99,,2013-01-10 15:43:00,
2013-01-10 10:53:00,38.0,-99.9,30.46,SSE,160,14.0,-999.0,-999,-99.99,,,-99.99,,2013-01-10 15:53:00,
2013-01-10 11:00:00,38.0,-99.9,30.45,SSE,160,16.0,-999.0,-999,-99.99,,,-99.99,,2013-01-10 16:00:00,
2013-01-10 11:23:00,38.0,-99.9,30.45,SSE,160,16.0,-999.0,-999,-99.99,,,-99.99,,2013-01-10 16:23:00,
2013-01-10 11:33:00,38.0,-99.9,30.45,SSE,160,16.0,-999.0,-999,-99.99,,,-99.99,,2013-01-10 16:33:00,
2013-01-10 11:43:00,38.0,-99.9,30.45,SSE,160,16.0,-999.0,-999,-99.99,,,-99.99,,2013-01-10 16:43:00,
2013-01-10 11:53:00,38.0,-99.9,30.45,SSE,160,16.0,-999.0,-999,-99.99,,,-99.99,,2013-01-10 16:53:00,
2013-01-10 12:00:00,38.0,-99.9,30.42,South,190,10.0,-999.0,-999,-99.99,,,-99.99,,2013-01-10 17:00:00,
2013-01-10 12:33:00,38.0,-99.9,30.42,South,190,10.0,-999.0,-999,-99.99,,,-99.99,,2013-01-10 17:33:00,
2013-01-10 12:43:00,38.0,-99.9,30.42,South,190,10.0,-999.0,-999,-99.99,,,-99.99,,2013-01-10 17:43:00,
2013-01-10 12:53:00,38.0,-99.9,30.42,South,190,10.0,-999.0,-999,-99.99,,,-99.99,,2013-01-10 17:53:00,
2013-01-10 13:00:00,39.0,-99.9,30.38,SSE,150,15.0,-999.0,-999,-99.99,,,-99.99,,2013-01-10 18:00:00,
2013-01-10 13:23:00,39.0,-99.9,30.38,SSE,150,15.0,-999.0,-999,-99.99,,,-99.99,,2013-01-10 18:23:00,
2013-01-10 13:33:00,39.0,-99.9,30.38,SSE,150,15.0,-999.0,-999,-99.99,,,-99.99,,2013-01-10 18:33:00,
2013-01-10 13:44:00,39.0,-99.9,30.38,SSE,150,15.0,-999.0,-999,-99.99,,,-99.99,,2013-01-10 18:44:00,
2013-01-10 13:53:00,39.0,-99.9,30.38,SSE,150,15.0,-999.0,-999,-99.99,,,-99.99,,2013-01-10 18:53:00,
2013-01-10 14:00:00,40.0,-99.9,30.35,South,170,7.0,-999.0,-999,-99.99,,,-99.99,,2013-01-10 19:00:00,
2013-01-10 14:23:00,40.0,-99.9,30.35,South,170,7.0,-999.0,-999,-99.99,,,-99.99,,2013-01-10 19:23:00,
2013-01-10 14:33:00,40.0,-99.9,30.35,South,170,7.0,-999.0,-999,-99.99,,,-99.99,,2013-01-10 19:33:00,
2013-01-10 14:44:00,40.0,-99.9,30.35,South,170,7.0,-999.0,-999,-99.99,,,-99.99,,2013-01-10 19:44:00,
2013-01-10 14:54:00,40.0,-99.9,30.35,South,170,7.0,-999.0,-999,-99.99,,,-99.99,,2013-01-10 19:54:00,
2013-01-10 15:00:00,42.0,-99.9,30.32,SE,130,7.0,-999.0,-999,-99.99,,,-99.99,,2013-01-10 20:00:00,
2013-01-10 15:24:00,42.0,-99.9,30.32,SE,130,7.0,-999.0,-999,-99.99,,,-99.99,,2013-01-10 20:24:00,
2013-01-10 15:33:00,42.0,-99.9,30.32,SE,130,7.0,-999.0,-999,-99.99,,,-99.99,,2013-01-10 20:33:00,
2013-01-10 15:43:00,42.0,-99.9,30.32,SE,130,7.0,-999.0,-999,-99.99,,,-99.99,,2013-01-10 20:43:00,
2013-01-10 15:54:00,42.0,-99.9,30.32,SE,130,7.0,-999.0,-999,-99.99,,,-99.99,,2013-01-10 20:54:00,
2013-01-10 16:00:00,42.0,-99.9,30.28,ESE,110,20.0,-999.0,-999,-99.99,,,-99.99,,2013-01-10 21:00:00,
2013-01-10 16:23:00,42.0,-99.9,30.28,ESE,110,20.0,-999.0,-999,-99.99,,,-99.99,,2013-01-10 21:23:00,
2013-01-10 16:33:00,42.0,-99.9,30.28,ESE,110,20.0,-999.0,-999,-99.99,,,-99.99,,2013-01-10 21:33:00,
2013-01-10 16:44:00,42.0,-99.9,30.28,ESE,110,20.0,-999.0,-999,-99.99,,,-99.99,,2013-01-10 21:44:00,
2013-01-10 16:53:00,42.0,-99.9,30.28,ESE,110,20.0,-999.0,-999,-99.99,,,-99.99,,2013-01-10 21:53:00,
2013-01-10 17:00:00,42.0,-99.9,30.26,ESE,110,22.0,-999.0,-999,-99.99,,,-99.99,,2013-01-10 22:00:00,
2013-01-10 17:27:00,42.0,-99.9,30.26,ESE,110,22.0,-999.0,-999,-99.99,,,-99.99,,2013-01-10 22:27:00,
2013-01-10 17:34:00,42.0,-99.9,30.26,ESE,110,22.0,-999.0,-999,-99.99,,,-99.99,,2013-01-10 22:34:00,
2013-01-10 17:44:00,42.0,-99.9,30.26,ESE,110,22.0,-999.0,-999,-99.99,,,-99.99,,2013-01-10 22:44:00,
2013-01-10 18:00:00,43.0,-99.9,30.23,ESE,110,25.0,-999.0,-999,-99.99,,,-99.99,,2013-01-10 23:00:00,
2013-01-10 18:33:00,43.0,-99.9,30.23,ESE,110,25.0,-999.0,-999,-99.99,,,-99.99,,2013-01-10 23:33:00,
2013-01-10 18:43:00,43.0,-99.9,30.23,ESE,110,25.0,-999.0,-999,-99.99,,,-99.99,,2013-01-10 23:43:00,
2013-01-10 18:53:00,43.0,-99.9,30.23,ESE,110,25.0,-999.0,-999,-99.99,,,-99.99,,2013-01-10 23:53:00,